Chemstar Masa — 3FGM7 — position and weather

sailwx.info

Track history (hours):
 
Tides and Currents Weather Stations Pressure Air Temp Water Temp Dewpoint Dewpoint Depression Visibility Wind Speed Wind Dir Waves Ship Positions

Chemstar Masa

Last reported at 2014-Oct-23 10:34 UTC. Time now 2014-Oct-30 14:34 UTC.
Position N 32°02' E 131°57'.

Length 141 m; draft 9.8 m.

Type: Tanker. MMSI: 353456000.

Date/timePositionNaut miles runAvg speedWind from/ knotsBaromVisibWave heightAir tempDewpointWater temp
2014-Oct-23 10:34N 32°02' E 131°57'1212.1
2014-Oct-23 09:33N 32°14' E 131°60'1413.6
2014-Oct-23 08:34N 32°28' E 132°03'  
2014-Oct-16 02:33N 32°11' E 131°59'1515.0
2014-Oct-16 01:33N 31°56' E 131°55'47013.4
2014-Oct-14 14:23N 30°58' E 122°49'1112.9
2014-Oct-14 13:33N 30°58' E 122°36'1413.7
2014-Oct-14 12:33N 31°01' E 122°21'2912.7
2014-Oct-14 10:16N 31°12' E 121°49'1013.9
2014-Oct-14 09:33N 31°19' E 121°42'1211.6
2014-Oct-14 08:33N 31°26' E 121°30'5 4.6
2014-Oct-14 07:33N 31°30' E 121°31'3 2.6
2014-Oct-14 06:33N 31°32' E 121°34'6 6.1
2014-Oct-14 05:33N 31°35' E 121°27'0 0.0
2014-Oct-14 04:16N 31°35' E 121°27'0 0.0
2014-Oct-14 03:33N 31°35' E 121°27'0 0.0
2014-Oct-14 02:33N 31°35' E 121°27'0 0.2
2014-Oct-14 01:34N 31°35' E 121°28'0 0.5
2014-Oct-14 00:34N 31°35' E 121°27'1 0.5
2014-Oct-13 23:19N 31°36' E 121°27'0 0.0
2014-Oct-13 22:19N 31°36' E 121°27'0 0.0
2014-Oct-13 21:31N 31°36' E 121°27'0 0.0
2014-Oct-13 20:31N 31°36' E 121°27'0 0.0
2014-Oct-13 19:25N 31°36' E 121°27'0 0.0
2014-Oct-13 18:31N 31°36' E 121°27'0 0.0
2014-Oct-13 17:31N 31°36' E 121°27'0 0.0
2014-Oct-13 16:31N 31°36' E 121°27'0 0.0
2014-Oct-13 15:19N 31°36' E 121°27'0 0.0
2014-Oct-13 13:31N 31°36' E 121°27'0 0.0
2014-Oct-13 12:13N 31°36' E 121°27'0 0.0
2014-Oct-13 11:25N 31°36' E 121°27'  
Track history (hours):
 
Tides and Currents Weather Stations Pressure Air Temp Water Temp Dewpoint Dewpoint Depression Visibility Wind Speed Wind Dir Waves Ship Positions

Chemstar Masa

Last reported at 2014-Oct-23 10:34 UTC. Time now 2014-Oct-30 14:34 UTC.
Position N 32°02' E 131°57'.

Length 141 m; draft 9.8 m.

Type: Tanker. MMSI: 353456000.

Date/timePositionNaut miles runAvg speedWind from/ knotsBaromVisibWave heightAir tempDewpointWater temp
2014-Oct-23 10:34N 32°02' E 131°57'1212.1
2014-Oct-23 09:33N 32°14' E 131°60'1413.6
2014-Oct-23 08:34N 32°28' E 132°03'  
2014-Oct-16 02:33N 32°11' E 131°59'1515.0
2014-Oct-16 01:33N 31°56' E 131°55'47013.4
2014-Oct-14 14:23N 30°58' E 122°49'1112.9
2014-Oct-14 13:33N 30°58' E 122°36'1413.7
2014-Oct-14 12:33N 31°01' E 122°21'2912.7
2014-Oct-14 10:16N 31°12' E 121°49'1013.9
2014-Oct-14 09:33N 31°19' E 121°42'1211.6
2014-Oct-14 08:33N 31°26' E 121°30'5 4.6
2014-Oct-14 07:33N 31°30' E 121°31'3 2.6
2014-Oct-14 06:33N 31°32' E 121°34'6 6.1
2014-Oct-14 05:33N 31°35' E 121°27'0 0.0
2014-Oct-14 04:16N 31°35' E 121°27'0 0.0
2014-Oct-14 03:33N 31°35' E 121°27'0 0.0
2014-Oct-14 02:33N 31°35' E 121°27'0 0.2
2014-Oct-14 01:34N 31°35' E 121°28'0 0.5
2014-Oct-14 00:34N 31°35' E 121°27'1 0.5
2014-Oct-13 23:19N 31°36' E 121°27'0 0.0
2014-Oct-13 22:19N 31°36' E 121°27'0 0.0
2014-Oct-13 21:31N 31°36' E 121°27'0 0.0
2014-Oct-13 20:31N 31°36' E 121°27'0 0.0
2014-Oct-13 19:25N 31°36' E 121°27'0 0.0
2014-Oct-13 18:31N 31°36' E 121°27'0 0.0
2014-Oct-13 17:31N 31°36' E 121°27'0 0.0
2014-Oct-13 16:31N 31°36' E 121°27'0 0.0
2014-Oct-13 15:19N 31°36' E 121°27'0 0.0
2014-Oct-13 13:31N 31°36' E 121°27'0 0.0
2014-Oct-13 12:13N 31°36' E 121°27'0 0.0
2014-Oct-13 11:25N 31°36' E 121°27'  

Dump ship's entire track history